• Em Portugal
  • Lista de países
  • Para 7 dias
  • Temperatura da água
  • Mapas de satélite
  • Mapa do tempo
  • Widgets de tempo
  • user-avatar
    Iniciar Sessão

    Previsão horária em Wrony

    Hoje, 17 Julho, Terça-feira

    Tempo Temperatura Precipitação Vento Pressão Humidade
    00:00 +16°C° 0,4 mm 1 m/s 724 mmHg 83%
    01:00 +16°C° 0 mm 1 m/s 724 mmHg 86%
    02:00 +16°C° 0,2 mm 1 m/s 723 mmHg 87%
    03:00 +16°C° 0,2 mm 2 m/s 723 mmHg 88%
    04:00 +15°C° 0,2 mm 2 m/s 723 mmHg 89%
    05:00 +16°C° 0 mm 2 m/s 723 mmHg 88%
    06:00 +17°C° 0 mm 3 m/s 723 mmHg 86%
    07:00 +18°C° 0 mm 3 m/s 724 mmHg 84%
    08:00 +19°C° 0,5 mm 4 m/s 724 mmHg 83%
    09:00 +19°C° 0,5 mm 5 m/s 724 mmHg 82%
    10:00 +20°C° 0,5 mm 5 m/s 724 mmHg 80%
    11:00 +20°C° 0,8 mm 5 m/s 723 mmHg 80%
    12:00 +20°C° 0,8 mm 5 m/s 723 mmHg 80%
    13:00 +20°C° 0,8 mm 5 m/s 723 mmHg 80%
    14:00 +20°C° 0,7 mm 5 m/s 723 mmHg 81%
    15:00 +19°C° 0,7 mm 5 m/s 723 mmHg 83%
    16:00 +19°C° 0,7 mm 5 m/s 723 mmHg 84%
    17:00 +19°C° 0,8 mm 4 m/s 723 mmHg 87%
    18:00 +18°C° 0,8 mm 4 m/s 723 mmHg 89%
    19:00 +18°C° 0,8 mm 4 m/s 723 mmHg 92%
    20:00 +17°C° 0,5 mm 3 m/s 723 mmHg 93%
    21:00 +17°C° 0,5 mm 3 m/s 723 mmHg 93%
    22:00 +17°C° 0,5 mm 3 m/s 723 mmHg 94%
    23:00 +17°C° 0,1 mm 3 m/s 723 mmHg 95%

    Amanhã, 18 Julho, Quarta-feira

    Tempo Temperatura Precipitação Vento Pressão Humidade
    00:00 +17°C° 0,1 mm 4 m/s 723 mmHg 95%
    01:00 +17°C° 0,1 mm 4 m/s 723 mmHg 95%
    02:00 +17°C° 0,1 mm 4 m/s 723 mmHg 95%
    03:00 +15°C° 0,1 mm 4 m/s 723 mmHg 95%
    04:00 +15°C° 0,1 mm 5 m/s 723 mmHg 95%
    05:00 +16°C° 0,6 mm 5 m/s 723 mmHg 94%
    06:00 +16°C° 0,6 mm 6 m/s 723 mmHg 92%
    07:00 +17°C° 0,6 mm 6 m/s 723 mmHg 91%
    08:00 +17°C° 2,1 mm 7 m/s 723 mmHg 91%
    09:00 +17°C° 2,1 mm 7 m/s 723 mmHg 91%
    10:00 +17°C° 2,1 mm 7 m/s 724 mmHg 91%
    11:00 +17°C° 1,7 mm 7 m/s 724 mmHg 91%
    12:00 +16°C° 1,7 mm 7 m/s 724 mmHg 91%
    13:00 +16°C° 1,7 mm 7 m/s 724 mmHg 92%
    14:00 +16°C° 1,2 mm 6 m/s 724 mmHg 92%
    15:00 +16°C° 1,2 mm 6 m/s 725 mmHg 92%
    16:00 +16°C° 1,2 mm 6 m/s 725 mmHg 92%
    17:00 +17°C° 0,6 mm 5 m/s 725 mmHg 92%
    18:00 +17°C° 0,6 mm 5 m/s 725 mmHg 92%
    19:00 +18°C° 0,6 mm 4 m/s 725 mmHg 92%
    20:00 +17°C° 0,2 mm 4 m/s 726 mmHg 93%
    21:00 +17°C° 0,2 mm 4 m/s 726 mmHg 93%
    22:00 +17°C° 0,2 mm 3 m/s 726 mmHg 94%
    23:00 +17°C° 0,1 mm 3 m/s 726 mmHg 94%

    Depois de amanhã, 19 Julho, Quinta-feira

    Tempo Temperatura Precipitação Vento Pressão Humidade
    00:00 +17°C° 0,1 mm 3 m/s 726 mmHg 94%
    01:00 +17°C° 0,1 mm 3 m/s 726 mmHg 94%
    02:00 +17°C° 0,2 mm 3 m/s 726 mmHg 95%
    03:00 +15°C° 0,2 mm 4 m/s 726 mmHg 95%
    04:00 +15°C° 0,2 mm 4 m/s 726 mmHg 95%
    05:00 +15°C° 0,4 mm 4 m/s 726 mmHg 94%
    06:00 +15°C° 0,4 mm 4 m/s 726 mmHg 94%
    07:00 +17°C° 0,4 mm 4 m/s 727 mmHg 93%
    08:00 +17°C° 1,2 mm 4 m/s 727 mmHg 92%
    09:00 +17°C° 1,2 mm 4 m/s 727 mmHg 91%
    10:00 +17°C° 1,2 mm 4 m/s 727 mmHg 89%
    11:00 +18°C° 1,2 mm 4 m/s 727 mmHg 89%
    12:00 +18°C° 1,2 mm 4 m/s 727 mmHg 89%
    13:00 +18°C° 1,2 mm 4 m/s 727 mmHg 89%
    14:00 +18°C° 0,5 mm 4 m/s 727 mmHg 89%
    15:00 +18°C° 0,5 mm 4 m/s 727 mmHg 89%
    16:00 +19°C° 0,5 mm 3 m/s 727 mmHg 89%
    17:00 +18°C° 0,2 mm 3 m/s 727 mmHg 90%
    18:00 +18°C° 0,2 mm 2 m/s 727 mmHg 91%
    19:00 +18°C° 0,2 mm 2 m/s 727 mmHg 92%
    20:00 +17°C° 0,2 mm 2 m/s 728 mmHg 93%
    21:00 +17°C° 0,2 mm 2 m/s 728 mmHg 94%
    22:00 +16°C° 0,2 mm 2 m/s 728 mmHg 95%
    23:00 +16°C° 0,3 mm 2 m/s 728 mmHg 94%

    20 Julho, Sexta-feira

    Tempo Temperatura Precipitação Vento Pressão Humidade
    00:00 +15°C° 0,3 mm 2 m/s 728 mmHg 94%
    01:00 +15°C° 0,3 mm 2 m/s 728 mmHg 94%
    02:00 +14°C° 0,1 mm 2 m/s 728 mmHg 93%
    03:00 +14°C° 0,1 mm 2 m/s 728 mmHg 92%
    04:00 +13°C° 0,1 mm 2 m/s 727 mmHg 92%
    05:00 +13°C° 0 mm 3 m/s 728 mmHg 89%
    06:00 +14°C° 0 mm 3 m/s 728 mmHg 87%
    07:00 +16°C° 0 mm 3 m/s 728 mmHg 84%
    08:00 +17°C° 0 mm 3 m/s 728 mmHg 79%
    09:00 +19°C° 0 mm 3 m/s 728 mmHg 74%
    10:00 +20°C° 0 mm 3 m/s 728 mmHg 69%
    11:00 +21°C° 0 mm 3 m/s 728 mmHg 67%
    12:00 +21°C° 0 mm 3 m/s 728 mmHg 65%
    13:00 +22°C° 0 mm 4 m/s 728 mmHg 63%
    14:00 +22°C° 0 mm 3 m/s 728 mmHg 62%
    15:00 +22°C° 0 mm 3 m/s 727 mmHg 61%
    16:00 +24°C° 0 mm 3 m/s 727 mmHg 60%
    17:00 +23°C° 0 mm 2 m/s 727 mmHg 65%
    18:00 +21°C° 0 mm 2 m/s 727 mmHg 69%
    19:00 +21°C° 0 mm 1 m/s 726 mmHg 73%
    20:00 +20°C° 0 mm 1 m/s 726 mmHg 75%
    21:00 +18°C° 0 mm 1 m/s 726 mmHg 78%
    22:00 +16°C° 0 mm 1 m/s 726 mmHg 80%
    23:00 +16°C° 0 mm 1 m/s 726 mmHg 81%

    21 Julho, Sábado

    Tempo Temperatura Precipitação Vento Pressão Humidade
    00:00 +15°C° 0 mm 1 m/s 726 mmHg 82%
    01:00 +15°C° 0 mm 1 m/s 726 mmHg 83%
    02:00 +15°C° 0 mm 1 m/s 726 mmHg 84%
    03:00 +15°C° 0 mm 1 m/s 726 mmHg 86%
    04:00 +14°C° 0 mm 1 m/s 725 mmHg 87%
    05:00 +16°C° 0 mm 1 m/s 726 mmHg 83%
    06:00 +17°C° 0 mm 0 m/s 726 mmHg 79%
    07:00 +18°C° 0 mm 0 m/s 726 mmHg 74%
    08:00 +21°C° 0 mm 1 m/s 726 mmHg 68%
    09:00 +23°C° 0 mm 1 m/s 726 mmHg 61%
    10:00 +24°C° 0 mm 1 m/s 726 mmHg 55%
    11:00 +25°C° 0 mm 1 m/s 726 mmHg 53%
    12:00 +25°C° 0 mm 1 m/s 726 mmHg 51%
    13:00 +26°C° 0 mm 1 m/s 725 mmHg 49%
    14:00 +26°C° 0 mm 1 m/s 725 mmHg 49%
    15:00 +26°C° 0 mm 1 m/s 725 mmHg 49%
    16:00 +26°C° 0 mm 1 m/s 724 mmHg 50%
    17:00 +24°C° 0 mm 1 m/s 724 mmHg 55%
    18:00 +23°C° 0 mm 1 m/s 724 mmHg 61%
    19:00 +22°C° 0 mm 1 m/s 724 mmHg 66%
    20:00 +21°C° 0 mm 1 m/s 724 mmHg 69%
    21:00 +20°C° 0 mm 1 m/s 724 mmHg 71%
    22:00 +18°C° 0 mm 1 m/s 724 mmHg 74%
    23:00 +18°C° 0 mm 1 m/s 724 mmHg 76%

    22 Julho, Domingo

    Tempo Temperatura Precipitação Vento Pressão Humidade
    00:00 +16°C° 0 mm 1 m/s 724 mmHg 79%
    01:00 +15°C° 0 mm 1 m/s 724 mmHg 81%
    02:00 +15°C° 0 mm 1 m/s 724 mmHg 83%
    03:00 +15°C° 0 mm 1 m/s 724 mmHg 85%
    04:00 +14°C° 0 mm 1 m/s 724 mmHg 87%
    05:00 +16°C° 0 mm 2 m/s 725 mmHg 83%
    06:00 +17°C° 0 mm 2 m/s 725 mmHg 79%
    07:00 +18°C° 0 mm 2 m/s 725 mmHg 76%
    08:00 +19°C° 0 mm 3 m/s 726 mmHg 71%
    09:00 +20°C° 0 mm 3 m/s 726 mmHg 66%
    10:00 +21°C° 0 mm 4 m/s 726 mmHg 62%
    11:00 +21°C° 0,1 mm 4 m/s 726 mmHg 60%
    12:00 +21°C° 0,1 mm 4 m/s 726 mmHg 59%
    13:00 +21°C° 0,1 mm 4 m/s 726 mmHg 58%
    14:00 +22°C° 0 mm 3 m/s 726 mmHg 57%
    15:00 +22°C° 0 mm 3 m/s 726 mmHg 55%
    16:00 +24°C° 0 mm 3 m/s 726 mmHg 54%
    17:00 +23°C° 0 mm 2 m/s 726 mmHg 59%
    18:00 +21°C° 0 mm 2 m/s 726 mmHg 64%
    19:00 +21°C° 0 mm 1 m/s 726 mmHg 70%
    20:00 +20°C° 0 mm 1 m/s 727 mmHg 72%
    21:00 +19°C° 0 mm 1 m/s 727 mmHg 74%
    22:00 +16°C° 0 mm 2 m/s 727 mmHg 77%
    23:00 +16°C° 0 mm 2 m/s 727 mmHg 79%
    Mostrar mais